Total_Precipitation_Accumulation
0.05 0.06 0.21 0.03 0.04 0.03 0.02 0.02 0.01 0.01 0.02 0.03 0.03 0.01 0.01 0.00 0.01 0.02 0.00 0.01 0.02 0.01 0.01 0.02 0.05 0.04 0.03 0.01 0.01 0.02 0.03 0.01 0.02 0.04 0.04 0.07 0.08 0.15 0.15 0.12 0.06 0.03 0.05
0.01 0.02 0.11 0.02 0.01 0.01 0.02 0.02 0.03 0.02 0.02 0.02 0.01 0.00 0.00 0.01 0.02 0.01 0.02 0.01 0.01 0.01 0.00 0.01 0.02 0.04 0.02 0.03 0.03 0.03 0.02 0.04 0.05 0.03 0.06 0.13 0.18 0.15 0.13 0.11 0.10 0.06 0.06
0.00 0.01 0.02 0.02 0.00 0.00 0.00 0.01 0.02 0.02 0.02 0.02 0.01 0.01 0.01 0.01 0.01 0.02 0.03 0.03 0.03 0.02 0.01 0.03 0.07 0.09 0.07 0.06 0.04 0.03 0.05 0.07 0.19 0.34 0.20 0.13 0.22 0.15 0.03 0.04 0.07 0.12 0.08
0.00 0.01 0.00 0.01 0.00 0.00 0.00 0.01 0.01 0.01 0.00 0.01 0.01 0.01 0.01 0.00 0.01 0.03 0.04 0.01 0.02 0.05 0.04 0.09 0.20 0.18 0.21 0.21 0.11 0.17 0.16 0.17 0.14 0.32 0.18 0.02 0.03 0.12 0.13 0.08 0.04 0.08 0.07
0.00 0.00 0.00 0.02 0.01 0.00 0.00 0.00 0.01 0.01 0.01 0.02 0.02 0.02 0.02 0.01 0.05 0.06 0.02 0.00 0.00 0.02 0.03 0.11 0.39 0.53 0.51 0.34 0.37 0.48 0.34 0.15 0.08 0.18 0.03 0.09 0.07 0.20 0.15 0.11 0.07 0.07 0.11
0.00 0.00 0.01 0.02 0.00 0.01 0.01 0.02 0.04 0.06 0.06 0.10 0.13 0.13 0.06 0.05 0.07 0.04 0.01 0.01 0.01 0.00 0.01 0.17 0.32 0.39 0.43 0.39 0.34 0.35 0.25 0.12 0.21 0.04 0.06 0.22 0.08 0.14 0.15 0.14 0.08 0.11 0.07
0.00 0.00 0.00 0.01 0.01 0.02 0.01 0.02 0.03 0.07 0.15 0.18 0.16 0.19 0.16 0.15 0.06 0.06 0.02 0.02 0.00 0.00 0.04 0.20 0.34 0.30 0.21 0.28 0.31 0.26 0.14 0.26 0.19 0.16 0.20 0.23 0.30 0.24 0.15 0.13 0.06 0.11 0.07
0.00 0.00 0.00 0.01 0.02 0.04 0.02 0.01 0.02 0.04 0.08 0.13 0.13 0.10 0.13 0.23 0.27 0.10 0.06 0.02 0.01 0.00 0.04 0.11 0.24 0.21 0.15 0.08 0.04 0.13 0.26 0.25 0.15 0.17 0.23 0.33 0.47 0.36 0.16 0.09 0.09 0.11 0.07
0.00 0.00 0.00 0.00 0.02 0.02 0.02 0.01 0.01 0.02 0.02 0.05 0.06 0.11 0.17 0.24 0.23 0.12 0.02 0.02 0.01 0.00 0.02 0.22 0.41 0.36 0.30 0.08 0.01 0.09 0.13 0.33 0.38 0.15 0.11 0.23 0.30 0.28 0.11 0.05 0.09 0.12 0.11
0.00 0.00 0.02 0.00 0.01 0.03 0.04 0.03 0.02 0.01 0.02 0.07 0.16 0.28 0.28 0.45 0.46 0.25 0.22 0.25 0.20 0.06 0.01 0.15 0.40 0.43 0.22 0.13 0.05 0.11 0.16 0.22 0.21 0.16 0.04 0.18 0.27 0.33 0.14 0.11 0.07 0.10 0.12
0.00 0.00 0.01 0.01 0.02 0.04 0.03 0.03 0.05 0.07 0.03 0.10 0.28 0.10 0.14 0.24 0.15 0.23 0.22 0.18 0.29 0.11 0.01 0.03 0.11 0.28 0.26 0.11 0.28 0.27 0.31 0.16 0.07 0.14 0.08 0.16 0.26 0.39 0.24 0.09 0.09 0.11 0.07
0.01 0.00 0.00 0.00 0.00 0.02 0.01 0.07 0.09 0.14 0.07 0.07 0.07 0.12 0.09 0.04 0.02 0.08 0.20 0.23 0.28 0.25 0.21 0.17 0.15 0.27 0.43 0.50 0.71 0.52 0.47 0.15 0.09 0.14 0.17 0.17 0.24 0.34 0.19 0.13 0.12 0.09 0.05
0.00 0.00 0.00 0.00 0.00 0.00 0.07 0.17 0.11 0.08 0.10 0.07 0.03 0.01 0.00 0.00 0.02 0.05 0.06 0.02 0.02 0.12 0.10 0.18 0.20 0.27 0.51 0.59 0.26 0.44 0.29 0.30 0.19 0.10 0.08 0.26 0.27 0.26 0.27 0.31 0.18 0.10 0.09
0.03 0.01 0.01 0.00 0.00 0.00 0.01 0.05 0.13 0.13 0.13 0.16 0.15 0.03 0.01 0.00 0.03 0.11 0.06 0.12 0.03 0.03 0.12 0.23 0.21 0.18 0.29 0.30 0.17 0.27 0.36 0.51 0.57 0.44 0.23 0.34 0.29 0.33 0.41 0.42 0.32 0.12 0.17
0.16 0.02 0.03 0.04 0.01 0.03 0.11 0.34 0.37 0.17 0.17 0.23 0.31 0.13 0.11 0.08 0.04 0.03 0.14 0.16 0.07 0.05 0.05 0.11 0.24 0.40 0.49 0.49 0.73 0.71 0.90 1.63 1.88 0.69 0.74 0.45 0.23 0.11 0.44 0.39 0.16 0.15 0.14
0.38 0.21 0.06 0.04 0.02 0.02 0.11 0.26 0.28 0.27 0.20 0.31 0.34 0.34 0.26 0.24 0.17 0.07 0.06 0.05 0.05 0.06 0.03 0.12 0.63 0.63 0.84 0.95 0.49 0.49 0.79 0.89 0.79 0.61 0.32 0.29 0.37 0.17 0.33 0.38 0.25 0.06 0.08
0.47 0.47 0.22 0.03 0.05 0.11 0.21 0.27 0.26 0.17 0.30 0.33 0.64 0.51 0.25 0.24 0.22 0.15 0.07 0.03 0.01 0.10 0.05 0.10 0.32 0.65 0.75 0.63 0.46 0.32 0.39 0.75 0.83 0.64 0.39 0.24 0.37 0.32 0.10 0.28 0.24 0.13 0.06
0.57 0.42 0.51 0.22 0.19 0.13 0.04 0.24 0.39 0.33 0.26 0.49 0.85 0.79 0.60 0.43 0.33 0.21 0.07 0.02 0.02 0.08 0.11 0.12 0.46 0.73 0.68 0.57 0.49 0.38 0.26 0.35 0.56 0.46 0.29 0.88 0.23 0.19 0.18 0.19 0.29 0.15 0.04
0.81 0.62 1.54 1.23 0.80 0.59 0.36 0.34 0.36 0.32 0.25 0.39 0.67 0.94 0.99 0.48 0.36 0.07 0.05 0.02 0.02 0.05 0.15 0.25 0.53 0.63 0.65 0.47 0.57 0.33 0.20 0.26 0.27 0.30 0.22 0.18 0.25 0.14 0.09 0.12 0.20 0.14 0.04
1.21 0.94 1.39 1.83 1.32 0.67 0.40 0.36 0.33 0.31 0.35 0.29 0.60 1.08 1.11 0.66 0.42 0.18 0.12 0.02 0.00 0.06 0.14 0.28 0.47 0.33 0.27 0.34 0.49 0.53 0.32 0.24 0.16 0.52 0.25 0.19 0.14 0.12 0.16 0.13 0.10 0.05 0.02
1.00 0.85 0.91 1.97 1.92 0.48 0.31 0.37 0.32 0.32 0.40 0.59 0.73 1.38 1.39 1.08 0.34 0.23 0.11 0.08 0.03 0.09 0.06 0.06 0.19 0.33 0.10 0.20 0.49 0.41 0.48 0.23 0.25 0.14 0.09 0.15 0.14 0.03 0.09 0.09 0.04 0.00 0.00
0.23 0.47 0.54 0.44 0.27 0.36 0.36 0.32 0.42 0.46 0.36 0.56 0.76 1.07 1.07 0.46 0.49 0.39 0.26 0.28 0.12 0.08 0.01 0.03 0.12 0.43 0.47 0.84 0.54 0.44 0.39 0.30 0.32 0.15 0.20 0.10 0.12 0.05 0.04 0.02 0.00 0.00 0.00
0.12 0.12 0.19 0.14 0.15 0.22 0.19 0.46 0.52 0.54 0.60 0.86 1.16 0.96 0.69 0.28 0.29 0.23 0.09 0.23 0.12 0.07 0.01 0.08 0.19 0.22 0.20 0.40 0.49 0.56 0.35 0.37 0.34 0.21 0.27 0.13 0.12 0.13 0.01 0.03 0.05 0.03 0.00
0.06 0.06 0.06 0.05 0.05 0.09 0.07 0.23 0.53 0.57 0.62 0.54 0.57 0.53 0.40 0.22 0.08 0.18 0.11 0.19 0.17 0.04 0.11 0.07 0.09 0.21 0.26 0.44 0.31 0.31 0.43 0.64 0.38 0.40 0.73 0.42 0.12 0.15 0.03 0.02 0.01 0.00 0.00
0.02 0.03 0.05 0.04 0.04 0.07 0.07 0.20 0.41 0.30 0.46 0.37 0.47 0.42 0.43 0.30 0.04 0.05 0.10 0.21 0.24 0.07 0.06 0.05 0.15 0.18 0.26 0.53 0.86 0.82 1.07 1.07 0.68 0.76 0.47 0.18 0.09 0.14 0.12 0.11 0.01 0.00 0.00
0.01 0.01 0.03 0.04 0.05 0.03 0.10 0.22 0.23 0.25 0.32 0.29 0.26 0.26 0.40 0.29 0.26 0.23 0.15 0.11 0.14 0.16 0.20 0.13 0.10 0.16 0.15 0.22 0.70 0.60 0.77 1.10 0.32 0.27 0.19 0.10 0.05 0.05 0.09 0.17 0.11 0.03 0.02